User: anonymous   Login
Location: Meriden
(44.0740°N, 93.3870°W)
Time: 19:13:14
(UTC-05:00)
Language:

AO-27 - Orbit

View from above orbital plane
View from above orbital plane
View from above satellite
View from above satellite

Ground track
Ground track

The orbit data is extracted from the following two-line orbital elements,

1 22825U 93061C   16182.86942381 -.00000013  00000-0  12618-4 0  9994
2 22825  98.7602 139.2011 0007283 279.9541  80.0819 14.29959661187191
Epoch (UTC): 30 June 2016 20:51:58
Eccentricity: 0.0007283
inclination: 98.7602°
perigee height: 786 km
apogee height: 797 km
right ascension of ascending node: 139.2011°
argument of perigee: 279.9541°
revolutions per day: 14.29959661
mean anomaly at epoch: 80.0819°
orbit number at epoch: 18719

The dashed part of the orbit path shows where the satellite is in the earth's shadow,  

DLR